Weather History for Fort Meade, MD

Change the Weather History Date:

Friday, February 8, 2013

  Actual Average (KBWI) Record (KBWI)
Temperature  
Mean Temperature 36 °F 34 °F  
Max Temperature 41 °F 43 °F 70 °F (1965)
Min Temperature 32 °F 26 °F -1 °F (1967)
Degree Days  
Heating Degree Days 28 31  
Month to date heating degree days 248  
Since 1 July heating degree days 3024  
Cooling Degree Days 0 0  
Month to date cooling degree days 0  
Year to date cooling degree days 0  
Moisture  
Dew Point 32 °F    
Average Humidity 84    
Maximum Humidity 100    
Minimum Humidity 65    
Precipitation  
Precipitation 0.00 in 0.10 in 1.46 in (1890)
Month to date precipitation 0.82  
Year to date precipitation 3.87  
Snow  
Snow 0.00 in 0.30 in 6.30 in (1974)
Month to date snowfall 2.6  
Since 1 July snowfall 12.8  
Snow Depth -    
Sea Level Pressure  
Sea Level Pressure 29.92 in    
Wind  
Wind Speed 6 mph (NNW)    
Max Wind Speed 23 mph    
Max Gust Speed 36 mph    
Visibility 7 miles    
Events      
T = Trace of Precipitation, MM = Missing Value Source: NWS Daily Summary

Daily Weather History Graph

Daily Weather History Graph

Search for Another Location

Airport:

Trip Planner

Search our weather history database for the weather conditions in past years. The results will help you decide how hot, cold, wet, or windy it might be!

Date:

Astronomy

Feb. 08, 2013 Rise Set
Actual Time 7:06 AM EST 5:36 PM EST
Civil Twilight 6:38 AM EST 6:04 PM EST
Nautical Twilight 6:07 AM EST 6:35 PM EST
Astronomical Twilight 5:35 AM EST 7:07 PM EST
Moon 5:33 AM EST (2/8) 4:07 PM EST (2/8)
Length of Visible Light 11h 25m
Length of Day
10h 30m
Waning Crescent, 3% of the Moon is Illuminated
Feb 8
Waning Crescent
Feb 10
New
Feb 17
First Quarter
Feb 25
Full
Mar 4
Last Quarter

Hourly Weather History & Observations

Time (EST) Temp. Windchill Dew Point Humidity Pressure Visibility Wind Dir Wind Speed Gust Speed Precip Events Conditions
12:00 AM 33.8 °F 27.7 °F 24.8 °F 70% 30.24 in 10.0 mi ENE 6.9 mph - N/A   Overcast
12:21 AM 32.0 °F 26.4 °F 24.8 °F 75% 30.23 in 10.0 mi NE 5.8 mph - N/A   Overcast
12:39 AM 32.0 °F 26.4 °F 24.8 °F 75% 30.21 in 10.0 mi ENE 5.8 mph - N/A   Overcast
1:00 AM 33.8 °F 29.6 °F 24.8 °F 70% 30.20 in 10.0 mi ENE 4.6 mph - N/A   Overcast
1:21 AM 33.8 °F 28.6 °F 24.8 °F 70% 30.19 in 10.0 mi NE 5.8 mph - N/A   Overcast
1:42 AM 33.8 °F 29.6 °F 26.6 °F 75% 30.18 in 10.0 mi ENE 4.6 mph - N/A   Overcast
2:00 AM 33.8 °F 29.6 °F 26.6 °F 75% 30.18 in 10.0 mi East 4.6 mph - N/A   Overcast
2:21 AM 33.8 °F 30.8 °F 26.6 °F 75% 30.16 in 10.0 mi NE 3.5 mph - N/A   Overcast
2:42 AM 33.8 °F 30.8 °F 26.6 °F 75% 30.14 in 10.0 mi NE 3.5 mph - N/A   Overcast
3:00 AM 32.0 °F 28.7 °F 28.4 °F 87% 30.13 in 10.0 mi NNE 3.5 mph - N/A   Overcast
3:21 AM 32.0 °F 28.7 °F 28.4 °F 87% 30.12 in 7.0 mi NE 3.5 mph - N/A   Mostly Cloudy
3:42 AM 32.0 °F - 30.2 °F 93% 30.11 in 7.0 mi Calm Calm - N/A   Scattered Clouds
4:00 AM 32.0 °F - 30.2 °F 93% 30.10 in 5.0 mi Calm Calm - N/A   Clear
4:42 AM 32.0 °F - 32.0 °F 100% 30.09 in 4.0 mi Calm Calm - N/A   Scattered Clouds
5:00 AM 32.0 °F - 32.0 °F 100% 30.08 in 5.0 mi Calm Calm - N/A   Clear
5:21 AM 32.0 °F - 32.0 °F 100% 30.06 in 3.0 mi Calm Calm - N/A   Unknown
5:42 AM 32.0 °F 28.7 °F 32.0 °F 100% 30.05 in 5.0 mi North 3.5 mph - N/A   Clear
6:00 AM 33.8 °F - 32.0 °F 93% 30.04 in 5.0 mi Calm Calm - N/A   Clear
7:00 AM 33.8 °F 29.6 °F 32.0 °F 93% 30.02 in 5.0 mi NNE 4.6 mph - N/A   Clear
7:21 AM 33.8 °F 30.8 °F 32.0 °F 93% 30.01 in 5.0 mi NNE 3.5 mph - N/A   Clear
7:42 AM 35.6 °F - 33.8 °F 93% 29.99 in 4.0 mi Calm Calm - N/A   Clear
9:12 AM 35.6 °F 32.8 °F 33.8 °F 93% 29.93 in 4.0 mi North 3.5 mph - N/A   Clear
9:30 AM 35.6 °F 31.7 °F 35.6 °F 100% 29.91 in 4.0 mi North 4.6 mph - N/A   Clear
9:51 AM 37.4 °F 32.8 °F 35.6 °F 93% 29.90 in 4.0 mi NNW 5.8 mph - N/A   Clear
10:12 AM 37.4 °F 33.8 °F 35.6 °F 93% 29.89 in 4.0 mi North 4.6 mph - N/A   Mostly Cloudy
10:30 AM 37.4 °F 32.8 °F 35.6 °F 93% 29.88 in 3.0 mi North 5.8 mph - N/A   Overcast
10:51 AM 37.4 °F 34.9 °F 35.6 °F 93% 29.88 in 5.0 mi North 3.5 mph - N/A   Overcast
11:12 AM 39.2 °F 37.0 °F 37.4 °F 93% 29.86 in 5.0 mi NNE 3.5 mph - N/A   Overcast
11:30 AM 39.2 °F 35.9 °F 37.4 °F 93% 29.84 in 4.0 mi NNW 4.6 mph - N/A   Overcast
11:51 AM 41.0 °F 37.1 °F 37.4 °F 87% 29.83 in 3.0 mi North 5.8 mph - N/A   Overcast
12:12 PM 41.0 °F 35.8 °F 37.4 °F 87% 29.81 in 5.0 mi North 8.1 mph - N/A   Overcast
12:30 PM 41.0 °F 37.1 °F 37.4 °F 87% 29.81 in 5.0 mi NNE 5.8 mph - N/A   Overcast
12:51 PM 41.0 °F 37.1 °F 37.4 °F 87% 29.80 in 4.0 mi North 5.8 mph - N/A   Overcast
1:12 PM 41.0 °F 37.1 °F 37.4 °F 87% 29.80 in 7.0 mi NNW 5.8 mph - N/A   Overcast
1:30 PM 41.0 °F 38.0 °F 37.4 °F 87% 29.78 in 10.0 mi North 4.6 mph - N/A   Overcast
1:51 PM 41.0 °F 37.1 °F 37.4 °F 87% 29.77 in 10.0 mi NNE 5.8 mph - N/A   Overcast
2:12 PM 41.0 °F 37.1 °F 37.4 °F 87% 29.76 in 10.0 mi North 5.8 mph - N/A   Overcast
2:30 PM 41.0 °F 37.1 °F 37.4 °F 87% 29.75 in 10.0 mi North 5.8 mph - N/A   Overcast
2:51 PM 41.0 °F 38.0 °F 37.4 °F 87% 29.76 in 10.0 mi NNW 4.6 mph - N/A   Overcast
3:12 PM 41.0 °F 37.1 °F 37.4 °F 87% 29.76 in 7.0 mi NW 5.8 mph - N/A   Overcast
3:33 PM 39.2 °F 33.6 °F 35.6 °F 87% 29.76 in 5.0 mi NW 8.1 mph - N/A   Overcast
3:51 PM 39.2 °F 34.2 °F 35.6 °F 87% 29.77 in 5.0 mi WNW 6.9 mph - N/A   Overcast
4:12 PM 37.4 °F 31.4 °F 35.6 °F 93% 29.78 in 4.0 mi NW 8.1 mph - N/A   Overcast
4:33 PM 37.4 °F 31.4 °F 35.6 °F 93% 29.79 in 2.5 mi WNW 8.1 mph - N/A   Overcast
4:51 PM 37.4 °F 31.4 °F 35.6 °F 93% 29.78 in 2.5 mi NW 8.1 mph - N/A   Overcast
5:12 PM 37.4 °F 33.8 °F 33.8 °F 87% 29.78 in 4.0 mi NW 4.6 mph - N/A   Overcast
5:33 PM 37.4 °F 32.1 °F 33.8 °F 87% 29.79 in 4.0 mi NW 6.9 mph - N/A   Overcast
5:51 PM 37.4 °F 32.8 °F 33.8 °F 87% 29.79 in 5.0 mi NW 5.8 mph - N/A   Overcast
6:33 PM 35.6 °F 31.7 °F 33.8 °F 93% 29.80 in 5.0 mi WNW 4.6 mph - N/A   Overcast
6:51 PM 37.4 °F 29.8 °F 33.8 °F 87% 29.80 in 7.0 mi WNW 11.5 mph 16.1 mph N/A   Overcast
7:12 PM 37.4 °F 30.8 °F 33.8 °F 87% 29.80 in 10.0 mi WNW 9.2 mph 17.3 mph N/A   Overcast
7:33 PM 37.4 °F 31.4 °F 33.8 °F 87% 29.81 in 10.0 mi WNW 8.1 mph - N/A   Overcast
7:51 PM 37.4 °F 29.3 °F 33.8 °F 87% 29.81 in 10.0 mi NW 12.7 mph 17.3 mph N/A   Overcast
8:12 PM 37.4 °F 28.9 °F 32.0 °F 81% 29.82 in 10.0 mi WNW 13.8 mph 19.6 mph N/A   Overcast
8:33 PM 39.2 °F 29.6 °F 30.2 °F 70% 29.83 in 10.0 mi WNW 19.6 mph 27.6 mph N/A   Overcast
8:51 PM 37.4 °F 27.5 °F 30.2 °F 75% 29.84 in 10.0 mi WNW 18.4 mph 32.2 mph N/A   Overcast
9:12 PM 37.4 °F 26.4 °F 28.4 °F 70% 29.84 in 10.0 mi WNW 23.0 mph 31.1 mph N/A   Overcast
9:33 PM 37.4 °F 28.2 °F 26.6 °F 65% 29.85 in 10.0 mi NW 16.1 mph 29.9 mph N/A   Overcast
9:51 PM 37.4 °F 28.9 °F 26.6 °F 65% 29.86 in 10.0 mi WNW 13.8 mph 24.2 mph N/A   Overcast
10:12 PM 35.6 °F 24.0 °F 26.6 °F 70% 29.88 in 10.0 mi WNW 23.0 mph 28.8 mph N/A   Overcast
10:33 PM 35.6 °F 24.2 °F 26.6 °F 70% 29.88 in 10.0 mi WNW 21.9 mph 34.5 mph N/A   Overcast
10:51 PM 33.8 °F 23.2 °F 23.0 °F 65% 29.89 in 10.0 mi NW 17.3 mph 34.5 mph N/A   Mostly Cloudy
11:12 PM 33.8 °F 25.3 °F 23.0 °F 65% 29.90 in 10.0 mi WNW 11.5 mph 27.6 mph N/A   Mostly Cloudy
11:33 PM 33.8 °F 22.5 °F 23.0 °F 65% 29.91 in 10.0 mi NW 19.6 mph 35.7 mph N/A   Scattered Clouds
11:54 PM 33.8 °F 21.9 °F 23.0 °F 65% 29.91 in 10.0 mi WNW 21.9 mph 32.2 mph N/A   Clear